Location: Kirkland Lake
(48.1510°N, 80.0330°W)
Time: 08:46:24
(UTC-04:00)

ISS - Pass Details

Date: 20 April 2026
Orbit: 414 x 424 km, 51.6° (Epoch: 18 May)

Event Time Altitude Azimuth Distance (km) Brightness Sun altitude
Exits shadow 05:38:48 - 219° (SW) 1,657 -1.3 -7.3°
Reaches altitude 10° 05:39:13 10° 217° (SW) 1,494 -1.5 -7.3°
Maximum altitude 05:42:23 40° 147° (SSE) 635 -2.8 -6.8°
Drops below altitude 10° 05:45:35 10° 76° (ENE) 1,509 0.7 -6.3°
Sets 05:47:46 0° 69° (ENE) 2,379 2.8 -6.0°
